When you browse on this site, cookies collect data to enhance your experience and personalize the content and advertising you see.
Visit our Privacy Policy to learn more. By continuing to use the site, you agree to this use of cookies and data.
  • In Austria
  • List of Countries
  • For 7 days
  • Water Temperature
  • Weather Map
  • News
  • Weather Widgets
  • user-avatar
    Login

    Hourly Weather Anatolivka

    Today, 23 October, Wednesday

    Time Temperature Precipitation Wind Pressure Humidity
    00:00 +14°C° 0 mm 1 mps 751 mmHg 62%
    01:00 +13°C° 0 mm 1 mps 751 mmHg 63%
    02:00 +13°C° 0 mm 1 mps 750 mmHg 64%
    03:00 +13°C° 0 mm 1 mps 750 mmHg 64%
    04:00 +13°C° 0 mm 1 mps 750 mmHg 65%
    05:00 +12°C° 0 mm 2 mps 750 mmHg 66%
    06:00 +13°C° 0 mm 2 mps 750 mmHg 63%
    07:00 +14°C° 0 mm 2 mps 750 mmHg 61%
    08:00 +14°C° 0 mm 2 mps 750 mmHg 59%
    09:00 +16°C° 0 mm 2 mps 750 mmHg 52%
    10:00 +18°C° 0 mm 2 mps 750 mmHg 45%
    11:00 +20°C° 0 mm 2 mps 750 mmHg 38%
    12:00 +21°C° 0 mm 2 mps 750 mmHg 35%
    13:00 +23°C° 0 mm 2 mps 750 mmHg 32%
    14:00 +24°C° 0 mm 3 mps 749 mmHg 29%
    15:00 +21°C° 0 mm 2 mps 749 mmHg 31%
    16:00 +20°C° 0 mm 2 mps 749 mmHg 33%
    17:00 +18°C° 0 mm 2 mps 748 mmHg 35%
    18:00 +18°C° 0 mm 2 mps 748 mmHg 36%
    19:00 +17°C° 0 mm 2 mps 748 mmHg 37%
    20:00 +16°C° 0 mm 2 mps 748 mmHg 38%
    21:00 +16°C° 0 mm 2 mps 748 mmHg 40%
    22:00 +15°C° 0 mm 2 mps 748 mmHg 41%
    23:00 +15°C° 0 mm 2 mps 748 mmHg 42%

    Tomorrow, 24 October, Thursday

    Time Temperature Precipitation Wind Pressure Humidity
    00:00 +14°C° 0 mm 2 mps 748 mmHg 44%
    01:00 +14°C° 0 mm 2 mps 748 mmHg 46%
    02:00 +14°C° 0 mm 1 mps 748 mmHg 48%
    03:00 +13°C° 0 mm 1 mps 748 mmHg 50%
    04:00 +13°C° 0 mm 1 mps 748 mmHg 52%
    05:00 +12°C° 0 mm 1 mps 748 mmHg 55%
    06:00 +12°C° 0 mm 0 mps 748 mmHg 53%
    07:00 +13°C° 0 mm 0 mps 748 mmHg 52%
    08:00 +14°C° 0 mm 0 mps 748 mmHg 51%
    09:00 +18°C° 0 mm 1 mps 748 mmHg 46%
    10:00 +20°C° 0 mm 1 mps 748 mmHg 41%
    11:00 +20°C° 0 mm 2 mps 748 mmHg 37%
    12:00 +21°C° 0 mm 2 mps 748 mmHg 35%
    13:00 +23°C° 0 mm 2 mps 748 mmHg 34%
    14:00 +24°C° 0 mm 1 mps 748 mmHg 32%
    15:00 +22°C° 0 mm 1 mps 747 mmHg 36%
    16:00 +19°C° 0 mm 0 mps 747 mmHg 40%
    17:00 +17°C° 0 mm 0 mps 747 mmHg 44%
    18:00 +16°C° 0 mm 0 mps 747 mmHg 46%
    19:00 +18°C° 0 mm 1 mps 747 mmHg 48%
    20:00 +16°C° 0 mm 1 mps 747 mmHg 51%
    21:00 +16°C° 0 mm 1 mps 747 mmHg 54%
    22:00 +15°C° 0 mm 1 mps 747 mmHg 57%
    23:00 +14°C° 0 mm 1 mps 747 mmHg 60%

    Day after tomorrow, 25 October, Friday

    Time Temperature Precipitation Wind Pressure Humidity
    00:00 +14°C° 0 mm 1 mps 747 mmHg 60%
    01:00 +14°C° 0 mm 1 mps 747 mmHg 60%
    02:00 +13°C° 0 mm 1 mps 747 mmHg 60%
    03:00 +12°C° 0 mm 0 mps 747 mmHg 61%
    04:00 +12°C° 0 mm 0 mps 747 mmHg 61%
    05:00 +11°C° 0 mm 0 mps 747 mmHg 61%
    06:00 +12°C° 0 mm 0 mps 747 mmHg 60%
    07:00 +14°C° 0 mm 1 mps 748 mmHg 58%
    08:00 +15°C° 0 mm 1 mps 748 mmHg 57%
    09:00 +16°C° 0 mm 1 mps 748 mmHg 51%
    10:00 +19°C° 0 mm 1 mps 748 mmHg 45%
    11:00 +21°C° 0 mm 1 mps 748 mmHg 39%
    12:00 +22°C° 0 mm 1 mps 748 mmHg 37%
    13:00 +23°C° 0 mm 1 mps 748 mmHg 35%
    14:00 +23°C° 0 mm 1 mps 748 mmHg 33%
    15:00 +22°C° 0 mm 1 mps 748 mmHg 36%
    16:00 +20°C° 0 mm 1 mps 747 mmHg 39%
    17:00 +17°C° 0 mm 0 mps 747 mmHg 43%
    18:00 +16°C° 0 mm 0 mps 747 mmHg 44%
    19:00 +16°C° 0 mm 0 mps 747 mmHg 46%
    20:00 +15°C° 0 mm 0 mps 748 mmHg 47%
    21:00 +15°C° 0 mm 0 mps 748 mmHg 48%
    22:00 +15°C° 0 mm 1 mps 748 mmHg 49%
    23:00 +15°C° 0 mm 1 mps 748 mmHg 50%

    26 October, Saturday

    Time Temperature Precipitation Wind Pressure Humidity
    00:00 +14°C° 0 mm 1 mps 748 mmHg 51%
    01:00 +14°C° 0 mm 1 mps 748 mmHg 52%
    02:00 +13°C° 0 mm 1 mps 748 mmHg 53%
    03:00 +13°C° 0 mm 1 mps 748 mmHg 55%
    04:00 +13°C° 0 mm 1 mps 748 mmHg 57%
    05:00 +12°C° 0 mm 1 mps 748 mmHg 59%
    06:00 +13°C° 0 mm 1 mps 748 mmHg 59%
    07:00 +13°C° 0 mm 1 mps 748 mmHg 59%
    08:00 +14°C° 0 mm 1 mps 748 mmHg 59%
    09:00 +15°C° 0 mm 1 mps 749 mmHg 55%
    10:00 +18°C° 0 mm 1 mps 749 mmHg 51%
    11:00 +20°C° 0 mm 1 mps 749 mmHg 47%
    12:00 +21°C° 0 mm 1 mps 749 mmHg 45%
    13:00 +22°C° 0 mm 1 mps 748 mmHg 43%
    14:00 +23°C° 0 mm 2 mps 748 mmHg 41%
    15:00 +21°C° 0 mm 1 mps 748 mmHg 46%
    16:00 +20°C° 0 mm 1 mps 748 mmHg 50%
    17:00 +16°C° 0 mm 0 mps 747 mmHg 55%
    18:00 +16°C° 0 mm 0 mps 747 mmHg 58%
    19:00 +15°C° 0 mm 0 mps 747 mmHg 60%
    20:00 +14°C° 0 mm 0 mps 747 mmHg 63%
    21:00 +14°C° 0 mm 0 mps 747 mmHg 64%
    22:00 +15°C° 0 mm 1 mps 747 mmHg 65%
    23:00 +14°C° 0 mm 1 mps 747 mmHg 66%

    27 October, Sunday

    Time Temperature Precipitation Wind Pressure Humidity
    00:00 +14°C° 0 mm 1 mps 747 mmHg 68%
    01:00 +13°C° 0 mm 1 mps 747 mmHg 69%
    02:00 +13°C° 0 mm 1 mps 746 mmHg 71%
    03:00 +13°C° 0 mm 2 mps 746 mmHg 72%
    04:00 +12°C° 0 mm 2 mps 746 mmHg 72%
    05:00 +12°C° 0 mm 2 mps 746 mmHg 73%
    06:00 +13°C° 0 mm 2 mps 746 mmHg 70%
    07:00 +13°C° 0 mm 2 mps 746 mmHg 67%
    08:00 +14°C° 0 mm 2 mps 746 mmHg 64%
    09:00 +16°C° 0 mm 2 mps 746 mmHg 56%
    10:00 +18°C° 0 mm 3 mps 746 mmHg 48%
    11:00 +20°C° 0 mm 3 mps 745 mmHg 41%
    12:00 +21°C° 0 mm 3 mps 745 mmHg 38%
    13:00 +21°C° 0 mm 3 mps 744 mmHg 35%
    14:00 +22°C° 0 mm 3 mps 744 mmHg 33%
    15:00 +21°C° 0 mm 3 mps 744 mmHg 37%
    16:00 +19°C° 0 mm 3 mps 743 mmHg 41%
    17:00 +18°C° 0 mm 2 mps 743 mmHg 45%
    18:00 +17°C° 0 mm 3 mps 743 mmHg 48%
    19:00 +16°C° 0 mm 3 mps 743 mmHg 50%
    20:00 +16°C° 0 mm 3 mps 743 mmHg 53%
    21:00 +14°C° 0 mm 3 mps 744 mmHg 56%
    22:00 +14°C° 0 mm 3 mps 744 mmHg 59%
    23:00 +13°C° 0 mm 3 mps 744 mmHg 62%

    28 October, Monday

    Time Temperature Precipitation Wind Pressure Humidity
    00:00 +13°C° 0 mm 3 mps 744 mmHg 66%
    01:00 +13°C° 0 mm 3 mps 744 mmHg 69%
    02:00 +12°C° 0 mm 3 mps 744 mmHg 73%
    03:00 +13°C° 0 mm 2 mps 744 mmHg 75%
    04:00 +13°C° 0 mm 2 mps 744 mmHg 78%
    05:00 +12°C° 0 mm 2 mps 744 mmHg 81%
    06:00 +12°C° 0 mm 2 mps 744 mmHg 78%
    07:00 +13°C° 0 mm 2 mps 744 mmHg 75%
    08:00 +13°C° 0 mm 2 mps 744 mmHg 72%
    09:00 +12°C° 0.2 mm 2 mps 744 mmHg 71%
    10:00 +12°C° 0.2 mm 2 mps 744 mmHg 69%
    11:00 +12°C° 0.2 mm 2 mps 744 mmHg 68%
    12:00 +11°C° 0.1 mm 3 mps 744 mmHg 65%
    13:00 +10°C° 0.1 mm 3 mps 744 mmHg 62%
    14:00 +10°C° 0.1 mm 3 mps 743 mmHg 60%
    15:00 +10°C° 0.1 mm 4 mps 743 mmHg 60%
    16:00 +8°C° 0.1 mm 4 mps 743 mmHg 60%
    17:00 +8°C° 0.1 mm 4 mps 743 mmHg 60%
    18:00 +8°C° 0 mm 4 mps 743 mmHg 59%
    19:00 +7°C° 0 mm 4 mps 743 mmHg 58%
    20:00 +7°C° 0 mm 4 mps 743 mmHg 58%
    21:00 +8°C° 0 mm 3 mps 743 mmHg 59%
    22:00 +7°C° 0 mm 3 mps 744 mmHg 61%
    23:00 +7°C° 0 mm 3 mps 744 mmHg 63%

    29 October, Tuesday

    Time Temperature Precipitation Wind Pressure Humidity
    00:00 +5°C° 0 mm 3 mps 744 mmHg 62%
    01:00 +5°C° 0 mm 3 mps 744 mmHg 62%
    02:00 +4°C° 0 mm 4 mps 744 mmHg 62%
    03:00 +4°C° 0 mm 4 mps 744 mmHg 65%
    04:00 +3°C° 0 mm 3 mps 743 mmHg 67%
    05:00 +2°C° 0 mm 3 mps 743 mmHg 70%
    06:00 +3°C° 0 mm 4 mps 744 mmHg 69%
    07:00 +2°C° 0 mm 5 mps 744 mmHg 67%
    08:00 +2°C° 0 mm 6 mps 744 mmHg 66%
    09:00 +3°C° 0 mm 6 mps 744 mmHg 61%
    10:00 +4°C° 0 mm 6 mps 744 mmHg 56%
    11:00 +5°C° 0 mm 6 mps 745 mmHg 52%
    12:00 +5°C° 0 mm 6 mps 745 mmHg 51%
    13:00 +5°C° 0 mm 6 mps 745 mmHg 51%
    14:00 +4°C° 0 mm 6 mps 745 mmHg 51%
    15:00 +4°C° 0 mm 6 mps 745 mmHg 53%
    16:00 +3°C° 0 mm 5 mps 745 mmHg 56%
    17:00 +3°C° 0 mm 4 mps 745 mmHg 59%
    18:00 +3°C° 0 mm 4 mps 746 mmHg 58%
    19:00 +1°C° 0 mm 5 mps 746 mmHg 57%
    20:00 +1°C° 0 mm 5 mps 747 mmHg 56%
    21:00 0°C° 0 mm 5 mps 747 mmHg 56%
    22:00 0°C° 0 mm 5 mps 747 mmHg 57%
    23:00 -1°C° 0 mm 5 mps 748 mmHg 57%
    Show more